CZ-3B DEB, 40162

Orbit data source: Space-Track

CZ-3B DEB, 40162 is space debris in HEO originally from a launch on Sat, 04 Sep 2010 UTC launched from the Xichang Space Center, China (XSC). Debris objects in space refer to the collection of defunct objects orbiting the Earth. Examples of debris include non-operational satellites, rocket bodies, and fragments generated from explosions, collisions, or faulty payload assembly.

Loading next visibility...
Identifier
40162, 2010-042P
Orbit
HEO
Last TLE update
2 hours ago
Origin
Manufacturer
CALT
Mission
Spacecraft
Bus & Motor
Unknown
Mass
Unknown
Launch date (UTC)
2010-09-04 (15 years ago)
Launch vehicle
Unknown
Launch site
Xichang Space Center, China (XSC)
Object type
Payload
Rocket body
Debris
Shape & HBR
Unknown
Radar Cross Section
Medium (>0.1 m² and <1 m²)

Expand to show TLE details & history

TLE from 2 hours ago
0 CZ-3B DEB
1 40162U 10042P   25199.88554079  .00000184  00000-0  00000+0 0  9994
2 40162  27.3300 336.1440 7212513 224.0095  48.6919  1.92052252 89028
Epoch: 2025-07-18T21:15Z
TLE epoch observation values (Epoch: 2025-07-18T21:15:10.724Z)
Latitude
0.00002°
Longitude
80.41819°
Altitude
20,936.13 km
Speed
3.822 km/s
True Right ascension
22h 24m 34s
True Declination
0° 00' 00"
Sunlit
Object was in daylight at epoch
Visualization orbit readout
Latitude
12.59408°
Longitude
105.98092°
Altitude
36,520.903 km
Speed
2.001 km/s
Apparent Right ascension
00h 08m 44s
Apparent Declination
6° 26' 09"
Sunlit
Object is in daylight
Visualization observer readout
Local Sidereal Time
12:25:04
Azimuth
5.601° NNE
Elevation
-43.495°
Doppler factor
1
Orbital elements
Apogee altitude
40,685.567 km
Perigee altitude
1,243.613 km
Semi-major axis
27,342.727 km
Eccentricity
0.72125
Inclination
27.33°
RAAN
336.144°
Arg. of periapsis
224.0095°
True anomaly
136.16935°
Mean anomaly
48.6919°
Eccentric anomaly
90.01655°
Mean motion
0.48004 °/min
Orbital period
749.93 mins
BSTAR
0
Loading maneuver chart data...
Loading SW <> Apogee altitude chart data...
Loading historical data...
Loading historical data...
Loading historical data...
Loading historical data...
Loading historical data...
Loading historical data...
Loading historical data...
|